Location: Boitzum
(52.1496°N, 9.6943°E)
Time: 23:43:42
(UTC+00:00)

Cosmos 2369 Rocket - Pass Details

Date: 13 January 2026
Orbit: 827 x 853 km, 71.0° (Epoch: 17 February)

Event Time Altitude Azimuth Distance (km) Brightness Sun altitude
Rises 06:33:44 0° 176° (S) 3,391 5.8 -7.6°
Reaches altitude 10° 06:36:24 10° 166° (SSE) 2,465 5.2 -7.2°
Maximum altitude 06:41:18 31° 106° (ESE) 1,445 4.4 -6.5°
Drops below altitude 10° 06:46:15 10° 46° (NE) 2,490 4.9 -5.9°
Sets 06:48:57 0° 36° (NE) 3,432 5.5 -5.5°
